Terminal Aerodrome Forecast
Issued by NWS

Home | Current Version | Previous Version | Text Only | Print | Product List | Glossary On
Versions: 1 2 3 4 5 6 7 8 9 10 11 12 13 14 15 16 17 18 19 20 21 22 23 24
000
FTUS46 KOTX 142340
TAFPUW
TAF
KPUW 142340Z 1500/1524 11006KT P6SM OVC006
     FM151900 13007KT P6SM OVC012
     FM152200 23005KT 1SM -SN OVC005=

USA.gov is the U.S. government's official web portal to all federal, state and local government web resources and services.